Flag for U.S.A. Weather past 2 weeks in Minot, North Dakota, U.S.A.

Now
9 °F

Overcast.


Feels Like: 2 °F
Forecast: 6 / 19 °F
Wind: 3 mph from Southeast

Location: Minot International Airport

Current Time: Dec 26, 2014 at 10:36:28 PM

Latest Report: Dec 26, 2014 at 8:54 PM


Visibility: 10 mi

Pressure: 30.27 "Hg

Humidity: 76%

Dew point: 3 °F

Location of MinotLocation

Historic Weather in Minot — Graph

°F

Minot temperature yesterday

Maximum temperature yesterday: 28 °F (at 4:54 AM)
Minimum temperature yesterday: 15 °F (at 11:54 PM)
Average temperature yesterday: 25 °F

Past Weeks' High & Low Weather Summary

 TemperatureHumidityPressure
High44 °F (Dec 12, 3:54 PM)96% (Dec 14, 3:54 AM)30.47 "Hg (Dec 14, 3:54 AM)
Low5 °F (Dec 17, 10:54 PM)60% (Dec 12, 3:54 PM)29.42 "Hg (Dec 21, 8:03 PM)
Average24 °F84%29.97 "Hg
* Reported Dec 11 8:54 PM — Dec 26 8:54 PM, Minot, Weather by CustomWeather, © 2014

Note: Actual official high and low records may vary slightly from our data, if they occured in-between our weather recording intervals... More about our weather records

Advertising

Minot weather history for previous 24 hours

 ConditionsComfort  
Time TempWeatherWind HumidityBarometerVisibility
8:54 PM
Dec 26
9 °FOvercast.3 mph76%30.27 "Hg10 mi
7:54 PM8 °FOvercast.3 mph76%30.29 "Hg10 mi
6:54 PM7 °FOvercast.No wind73%30.29 "Hg10 mi
5:54 PM7 °FOvercast.7 mph76%30.29 "Hg10 mi
4:54 PM9 °FPartly sunny.No wind84%30.29 "Hg10 mi
3:54 PM12 °FSunny.6 mph73%30.29 "Hg10 mi
2:54 PM12 °FSunny.8 mph73%30.27 "Hg8 mi
1:54 PM13 °FScattered clouds.7 mph70%30.28 "Hg10 mi
12:54 PM12 °FPartly sunny.8 mph70%30.28 "Hg10 mi
11:54 AM11 °FOvercast.12 mph73%30.30 "Hg10 mi
11:03 AM11 °FOvercast.12 mph73%30.20 "Hg7 mi
9:54 AM10 °FOvercast.12 mph73%30.29 "Hg10 mi
8:54 AM8 °FOvercast.9 mph79%30.29 "Hg10 mi
7:54 AM7 °FLight snow. Overcast.No wind83%30.28 "Hg3 mi
6:54 AM7 °FOvercast.5 mph79%30.25 "Hg7 mi
5:54 AM7 °FOvercast.No wind83%30.23 "Hg7 mi
4:54 AM5 °FOvercast.6 mph83%30.23 "Hg9 mi
3:54 AM5 °FPassing clouds.7 mph80%30.21 "Hg10 mi
2:54 AM6 °FClear.13 mph79%30.19 "Hg10 mi
1:54 AM7 °FPassing clouds.16 mph79%30.18 "Hg10 mi
12:54 AM11 °FOvercast.20 mph73%30.18 "Hg10 mi
11:54 PM
Dec 25
15 °FOvercast.15 mph70%30.16 "Hg10 mi
10:54 PM17 °FMostly cloudy.18 mph76%30.13 "Hg10 mi
Weather by CustomWeather, © 2014

See weather overviewHow to use our weather pages